Huvudsida
METAR-TAF:

METAR-TAF

Flygplatser :

Jask, Iran

latitud: 26-38N, longitud: 057-46E, höjd: 3 m

Aktuellt väderrapport

Denna rapport gjordes för 11 minuter sedan, klockan 17:00 UTC
Vind 8 kt från nordväst
Temperatur 23°C
Fuktighet 73%
Tryck 1012 hPa
Sikt: 7000 m

METAR: OIZJ 281700Z 31008KT 7000 NSC 23/18 Q1012

Tid: 20:41 (17:11 UTC)


TAF: saknas

Aktuella väderrapporter och prognoser från 4000 flygplatser (METAR- och TAF-rapporter).

De tillgängliga stationerna syns som gula och röda prickar på kartan.

För musen över prickarna för att se namnen på stationerna.

Klicka sedan för att få väderrapporter och prognoser.

För att ändra kartan: Klicka på de gröna knapparna med ett svart kors på för att zooma in; den gröna knappen med ett streck på för att zooma ut; eller på de gröna pilarna för angränsande kartor.


METAR-TAF: